Home   Weather   Rapid City   Past weeks

Flag for USA Past Weather in Rapid City, South Dakota, USA — Yesterday and Last 2 Weeks

Now
6 °F

Clear.


Feels Like: -4 °F
Forecast: 7 / 31 °F
Wind: 6 mph from North

Location: Ellsworth Air Force Base

Current Time: Dec 11, 2016 at 3:11:56 am

Latest Report: Dec 11, 2016 at 1:58 am


Visibility: 10 mi

Pressure: 30.02 "Hg (26.39 "Hg at 977m altitude)

Humidity: 83%

Dew Point: 2 °F

Location of Rapid CityLocation

Past Weather in Rapid City — Graph

°F

Rapid City Temperature Yesterday

Maximum temperature yesterday: 7 °F (at 1:58 pm)
Minimum temperature yesterday: 1 °F (at 7:58 am)
Average temperature yesterday: 4 °F

High & Low Weather Summary for the Past Weeks

 TemperatureHumidityPressure
High58 °F (Nov 26, 12:58 pm)100% (Nov 28, 9:03 pm)30.83 "Hg (Nov 28, 9:03 pm)
Low-3 °F (Dec 8, 6:58 am)19% (Nov 26, 11:58 am)29.07 "Hg (Nov 28, 12:58 am)
Average22 °F69%29.99 "Hg
* Reported Nov 26 1:58 am — Dec 11 1:58 am, Rapid City, Weather by CustomWeather, © 2016

Note: Actual official high and low records may vary slightly from our data, if they occured in-between our weather recording intervals... More about our weather records

Advertising

Rapid City Weather History for the Previous 24 Hours

Scroll right to see more
 ConditionsComfort  
Time TempWeatherWind HumidityBarometerVisibility
1:58 am
Sun, Dec 11
6 °FClear.6 mph83%30.02 "Hg10 mi
12:58 am6 °FClear.1 mph85%29.99 "Hg10 mi
11:58 pm
Sat, Dec 10
5 °FPassing clouds.No wind84%29.97 "Hg10 mi
10:58 pm4 °FPassing clouds.8 mph85%29.98 "Hg10 mi
10:03 pm5 °FPassing clouds.1 mph85%29.75 "Hg10 mi
9:03 pm5 °FLight snow. Overcast.9 mph85%29.76 "Hg7 mi
8:03 pm5 °FMostly cloudy.9 mph85%29.75 "Hg10 mi
7:03 pm5 °FMostly cloudy.3 mph85%29.73 "Hg10 mi
5:58 pm5 °FLow clouds.8 mph85%29.95 "Hg10 mi
4:58 pm5 °FLow clouds.12 mph86%29.94 "Hg10 mi
3:58 pm5 °FLow clouds.10 mph83%29.95 "Hg10 mi
3:02 pm7 °FLow clouds.9 mph78%29.75 "Hg10 mi
2:58 pm7 °FLight snow. More clouds than sun.9 mph81%29.98 "Hg5 mi
1:58 pm7 °FLow clouds.7 mph80%30.00 "Hg10 mi
12:58 pm7 °FLow clouds.9 mph79%30.01 "Hg10 mi
11:58 am6 °FLow clouds.9 mph81%30.04 "Hg10 mi
10:58 am4 °FLow clouds.12 mph85%30.10 "Hg10 mi
9:58 am3 °FLow clouds.13 mph85%30.16 "Hg10 mi
8:58 am2 °FLow clouds.10 mph84%30.19 "Hg10 mi
7:58 am1 °FLow clouds.10 mph84%30.22 "Hg10 mi
6:58 am1 °FLow clouds.10 mph84%30.27 "Hg10 mi
5:58 am1 °FMostly cloudy.9 mph84%30.28 "Hg10 mi
4:58 am2 °FOvercast.14 mph84%30.27 "Hg10 mi
3:58 am4 °FOvercast.15 mph81%30.31 "Hg10 mi
Weather by CustomWeather, © 2016

See weather overviewHow to use our weather pages